EDT,Max TemperatureF,Mean TemperatureF,Min TemperatureF,Max Dew PointF,MeanDew PointF,Min DewpointF,Max Humidity, Mean Humidity, Min Humidity, Max Sea Level PressureIn, Mean Sea Level PressureIn, Min Sea Level PressureIn, Max VisibilityMiles, Mean VisibilityMiles, Min VisibilityMiles, Max Wind SpeedMPH, Mean Wind SpeedMPH, Max Gust SpeedMPH,PrecipitationIn, CloudCover, Events, WindDirDegrees
2014-3-1,54,42,30,31,23,16,70,51,35,30.32,30.24,30.16,10,10,10,9,2,,0.00,4,,205
2014-3-2,70,52,33,44,37,29,85,59,36,30.19,30.03,29.84,10,9,7,15,5,22,0.00,0,,199
2014-3-3,61,44,28,49,35,23,93,81,54,30.20,29.96,29.72,10,8,2,21,11,30,0.27,7,Rain-Snow,75
2014-3-4,39,29,19,21,12,6,80,49,28,30.32,30.22,30.15,10,10,10,9,6,,0.01,0,,66
2014-3-5,55,42,28,27,20,14,72,46,28,30.21,30.14,30.06,10,10,10,7,2,,0.00,0,,54
2014-3-6,39,34,30,30,22,13,93,65,36,30.33,30.19,30.07,10,8,4,14,9,23,0.24,5,Rain,35
2014-3-7,48,40,33,38,33,30,93,86,66,30.05,29.99,29.92,10,7,1,14,8,18,1.44,7,Rain-Snow,6
2014-3-8,69,50,32,42,35,29,96,61,25,30.05,29.98,29.92,10,8,2,9,2,17,0.01,0,,238
2014-3-9,69,60,50,36,28,15,59,35,15,30.05,30.00,29.96,10,10,10,12,6,,0.00,0,,290
2014-3-10,73,60,46,34,27,18,44,30,19,29.99,29.88,29.77,10,10,10,13,5,22,0.00,0,,278
2014-3-11,77,62,48,40,32,28,56,34,18,29.79,29.71,29.63,10,10,10,10,4,21,0.00,0,,234
2014-3-12,72,56,39,58,46,20,94,65,40,29.68,29.46,29.22,10,9,3,28,10,45,0.14,5,Rain,228
2014-3-13,46,38,30,19,7,-1,48,30,15,30.20,29.98,29.71,10,10,10,20,12,33,0.00,0,,309
2014-3-14,60,44,27,21,13,4,61,29,17,30.26,30.15,30.02,10,10,10,14,5,24,0.00,0,,205
2014-3-15,71,58,46,33,26,21,46,30,16,30.02,29.98,29.94,10,10,10,16,8,23,0.00,0,,243
2014-3-16,51,45,37,41,38,29,93,81,43,29.98,29.88,29.79,10,5,2,14,5,21,0.83,7,Rain,35
2014-3-17,37,34,30,35,30,27,93,89,81,29.95,29.86,29.80,10,8,2,13,8,20,0.39,8,Rain,46
2014-3-18,44,37,30,38,34,27,93,87,76,30.15,30.05,29.91,10,8,2,8,5,,0.08,8,Rain,42
2014-3-19,50,44,39,43,39,37,96,90,74,30.16,30.09,29.95,10,4,2,10,3,,0.02,7,Rain,68
2014-3-20,66,50,37,40,26,8,100,51,11,30.03,29.97,29.93,10,8,1,15,5,24,0.00,0,,297
2014-3-21,66,52,39,28,22,18,45,31,19,30.13,30.05,30.00,10,10,10,13,4,20,0.00,0,,215
2014-3-22,73,59,46,38,32,23,50,35,25,29.99,29.95,29.90,10,10,10,8,4,,0.00,2,,234
2014-3-23,57,48,39,45,40,25,93,78,49,30.12,29.99,29.89,10,8,2,12,3,,0.37,5,Rain,10
2014-3-24,51,40,28,25,21,16,81,46,31,30.22,30.12,30.01,10,10,10,7,4,16,0.00,0,,10
2014-3-25,48,38,30,36,29,20,100,73,37,30.03,29.89,29.76,10,7,1,22,3,36,0.16,6,Rain-Snow,303
2014-3-26,48,36,27,18,10,5,61,37,19,30.27,30.18,30.05,10,10,10,10,7,23,0.00,1,,304
2014-3-27,57,42,26,22,19,12,78,44,21,30.39,30.29,30.20,10,10,7,14,3,22,0.00,0,,199
2014-3-28,59,54,48,52,47,34,89,76,52,30.22,30.12,30.07,10,10,6,13,6,16,0.00,8,Rain,203
2014-3-29,64,58,48,61,54,31,100,92,52,30.11,29.86,29.58,10,3,0,17,3,40,0.45,8,Fog-Rain,80
2014-3-30,55,48,41,30,25,17,56,43,23,30.00,29.86,29.69,10,10,10,20,13,33,0.00,3,,320
2014-3-31,73,58,44,24,19,14,40,23,12,30.11,30.04,30.00,10,10,10,13,6,,0.00,0,,267